Weather History for Marshfield, WI

Change the Weather History Date:

Tuesday, October 8, 2013

  Actual Average Record
Temperature  
Mean Temperature 57 °F -  
Max Temperature 73 °F 61 °F 81 °F (1997)
Min Temperature 41 °F 39 °F 20 °F (1976)
Degree Days  
Heating Degree Days 8    
Growing Degree Days 7 (Base 50)    
Moisture  
Dew Point 43 °F    
Average Humidity 65    
Maximum Humidity 93    
Minimum Humidity 33    
Precipitation  
Precipitation 0.00 in - - ()
Sea Level Pressure  
Sea Level Pressure 30.06 in    
Wind  
Wind Speed 6 mph (South)    
Max Wind Speed 17 mph    
Max Gust Speed 29 mph    
Visibility 10 miles    
Events      
Averages and records for this station are not official NWS values.
T = Trace of Precipitation, MM = Missing Value Source: NWS Daily Summary

Daily Weather History Graph

Daily Weather History Graph

Search for Another Location

Airport:

Trip Planner

Search our weather history database for the weather conditions in past years. The results will help you decide how hot, cold, wet, or windy it might be!

Date:

Astronomy

Oct. 08, 2013 Rise Set
Actual Time 7:07 AM CDT 6:28 PM CDT
Civil Twilight 6:38 AM CDT 6:57 PM CDT
Nautical Twilight 6:04 AM CDT 7:30 PM CDT
Astronomical Twilight 5:30 AM CDT 8:04 PM CDT
Moon 11:11 AM CDT (10/8) 8:55 PM CDT (10/8)
Length of Visible Light 12h 18m
Length of Day
11h 20m
Waxing Crescent, 16% of the Moon is Illuminated
Oct 8
Waxing Crescent
Oct 11
First Quarter
Oct 18
Full
Oct 26
Last Quarter
Nov 3
New

Hourly Weather History & Observations

Time (CDT) Temp. Windchill Dew Point Humidity Pressure Visibility Wind Dir Wind Speed Gust Speed Precip Events Conditions
12:54 AM 43.0 °F - 39.9 °F 89% 30.06 in 10.0 mi Calm Calm - N/A   Clear
1:54 AM 43.0 °F - 39.0 °F 86% 30.07 in 10.0 mi Calm Calm - N/A   Clear
2:54 AM 42.1 °F - 39.0 °F 89% 30.07 in 8.0 mi Calm Calm - N/A   Clear
3:54 AM 41.0 °F - 39.0 °F 93% 30.08 in 10.0 mi Calm Calm - N/A   Clear
4:54 AM 41.0 °F 39.0 °F 37.9 °F 89% 30.09 in 10.0 mi South 3.5 mph - N/A   Clear
5:54 AM 43.0 °F 41.3 °F 39.0 °F 86% 30.10 in 10.0 mi SSE 3.5 mph - N/A   Clear
6:54 AM 43.0 °F 39.5 °F 39.9 °F 89% 30.10 in 10.0 mi SSE 5.8 mph - N/A   Clear
7:54 AM 44.1 °F 40.8 °F 41.0 °F 89% 30.11 in 10.0 mi South 5.8 mph - N/A   Clear
8:54 AM 50.0 °F - 44.1 °F 80% 30.10 in 10.0 mi South 9.2 mph - N/A   Clear
9:54 AM 55.9 °F - 45.0 °F 67% 30.09 in 10.0 mi South 12.7 mph - N/A   Clear
10:54 AM 62.1 °F - 46.9 °F 58% 30.08 in 10.0 mi South 10.4 mph - N/A   Clear
11:54 AM 68.0 °F - 46.0 °F 45% 30.07 in 10.0 mi South 10.4 mph - N/A   Clear
12:54 PM 72.0 °F - 45.0 °F 38% 30.04 in 10.0 mi SSW 13.8 mph 24.2 mph N/A   Clear
1:54 PM 73.9 °F - 43.0 °F 33% 30.03 in 10.0 mi SSW 15.0 mph 28.8 mph N/A   Clear
2:54 PM 72.0 °F - 44.1 °F 37% 30.03 in 10.0 mi South 15.0 mph 24.2 mph N/A   Clear
3:54 PM 72.0 °F - 43.0 °F 35% 30.01 in 10.0 mi South 17.3 mph 23.0 mph N/A   Clear
4:54 PM 71.1 °F - 42.1 °F 35% 30.01 in 10.0 mi SSW 13.8 mph 24.2 mph N/A   Clear
5:54 PM 68.0 °F - 46.0 °F 45% 30.01 in 10.0 mi South 11.5 mph - N/A   Clear
6:54 PM 61.0 °F - 46.0 °F 58% 30.04 in 10.0 mi South 8.1 mph - N/A   Clear
7:54 PM 59.0 °F - 46.0 °F 62% 30.04 in 10.0 mi South 6.9 mph - N/A   Clear
8:54 PM 57.0 °F - 46.0 °F 67% 30.05 in 10.0 mi South 6.9 mph - N/A   Clear
9:54 PM 57.9 °F - 46.0 °F 65% 30.05 in 10.0 mi South 6.9 mph - N/A   Clear
10:54 PM 57.9 °F - 45.0 °F 62% 30.05 in 10.0 mi South 9.2 mph - N/A   Clear
11:54 PM 55.9 °F - 45.0 °F 67% 30.06 in 10.0 mi South 9.2 mph - N/A   Clear